Saint-Pierre Airport

Airport
ICAO code: 
LFVP
IATA Code: 
FSP
Summary
ICAO Region: 
NAT
Territory: 
Location: 
Saint-Pierre et Michelon, North Atlantic,
Serving: 
Saint-Pierre
Elevation: 
27 ft
Coordinates: 
Aerial View: 
46° 45' 45.18" N, 56° 10' 32.941" W
Metar
Observation
LFVP 061200Z 29010KT 270V330 9999 BKN041 01/M06 Q1034 NOSIG
Station
Saint-Pierre
Date/Time
2021-12-06 12:00:00
Wind direction
290°
Wind speed
10 kts
Lowest cloud amount
broken clouds
Temperature
1°C
Dew point
-6°C
Humidity
59%
QNH
1034 hPa
Weather condition
n/a

Description

Airport serving the island of St Pierre, part of the French territory St Pierre et Michelon off the eastern coast of Canada near St Johns

Climatology

Humid Continental climate (Köppen climate classification Dfb) - Variable weather patterns and a large seasonal temperature variance. Summers are often warm and humid with frequent thunderstorms and winters can be very cold with frequent snowfall and persistent snow cover.

The separate article climate Newfoundland contains more detail on the climate of Newfoundland and associated weather phenomena.

Runways

Designator Length Width Surface Rops
8/26 1798 46 ASP No/No
Airport map: 
Aerial View: 

SKYbrary Partners:

Safety knowledge contributed by: